sat.trackr.live / text

‹ back to catalog

STARLINK-37109

NORAD 68666 · 2026-077E

PAYLOAD ACTIVE UNKNOWN

§ Identity

Operator
Country
US
Launch date
2026-04-11
Launch site
AFWTR
Launch vehicle
Mass (kg)
RCS (m²)

Purposes: comms

External: N2YO · Heavens-Above · Gunter

§ Orbital elements

Epoch: 2026-09-19T09:56:49.331040Z

Period
93.91 min
Inclination
97.2858°
Eccentricity
0.0001906
Mean motion
15.33443002 rev/d
Perigee alt
464.2 km
Apogee alt
466.9 km
Semi-major
6,843.7 km
B*
3.7384e-4
RAAN
132.2795°
Arg perigee
81.4937°
Mean anomaly
278.6522°
Rev number
2,484

§ Raw data

STARLINK-371091 68666U 26077E   26262.41445985  .00012013  00000+0  37384-3 0  99962 68666  97.2858 132.2795 0001906  81.4937 278.6522 15.33443002 24845

JSON: /api/v1/satellites/68666 · /tle

For live sub-satellite position, see the globe view (requires WebGL).

§ Visibility from observer

Set your observer location to see the next 7 days of passes ≥ 10°. The values pass through the URL so the page stays shareable.

No JS? Fill the form by hand. The geolocation button needs JavaScript.